[[{"header":{"parameterUnit":"m.s-1","parameterCategory":1,"la1":30.2991,"la2":30.254,"lo1":-89.0895,"lo2":-89.0444,"dy":0.0017,"dx":0.0017,"nx":28,"ny":28,"refTime":"2025-03-26T21:00:00:Z","depth":0,"parameterNumber":2,"parameterNumberName":"U-component_of_WINDS"},"data":[0,0,0,0,0,0,0,0,0,0,0,0,0,0,0,0,0,0,0,0,0,0,0,0,0,0,0,0,0,0,0,0,0,0,0,0,0,0,0,0,0,0,0,0,0,0,0,0,0,0,0,0,0,0,0,0,0,0,-5.4788,-5.4789,0,-5.4877,-5.4878,-5.4879,-5.4809,-5.4806,-5.4803,-5.48,-5.4889,-5.4894,-5.4899,0,0,0,0,0,0,0,0,0,0,0,0,0,-5.4554,-5.4559,-5.4788,-5.4789,-5.479,-5.4877,-5.4878,-5.488,-5.4809,-5.4806,-5.4802,-5.4799,-5.4887,-5.4894,-5.49,0,0,0,0,0,0,0,0,0,0,0,0,0,-5.4651,-5.456,-5.4788,-5.4766,-5.4764,-5.4877,-5.4878,-5.488,-5.481,-5.4806,-5.4801,-5.4797,-5.4885,-5.4893,-5.4901,-5.5039,0,0,-5.4924,-5.4928,0,0,0,0,0,0,0,0,-5.4645,-5.4659,-5.4768,-5.4767,-5.4766,-5.4827,-5.4828,-5.4933,-5.4811,-5.4793,-5.48,-5.4795,-5.4872,-5.4881,-5.4907,-5.5043,-5.5046,-5.4925,-5.493,-5.4933,-5.4935,0,0,0,0,0,0,0,-5.4639,-5.4655,-5.4823,-5.4769,-5.4769,-5.4751,-5.4759,-5.4848,-5.4856,-5.4794,-5.4789,-5.4801,-5.4871,-5.49,-5.4909,-5.5048,-5.4925,-5.4932,-5.4936,-5.4939,-5.53,-5.5305,0,0,0,0,0,0,-5.4635,-5.465,-5.482,-5.4826,-5.4694,-5.4758,-5.4768,-5.4812,-5.4855,-5.4858,-5.4805,-5.4797,-5.4889,-5.49,-5.4912,-5.5074,-5.4933,-5.494,-5.4945,-5.5295,-5.5301,-5.5307,0,0,0,0,0,0,-5.463,-5.465,-5.4817,-5.4737,-5.4756,-5.4767,-5.4817,-5.4816,-5.4845,-5.4863,-5.4864,-5.4833,-5.4886,-5.4901,-5.5007,-5.5076,-5.4944,-5.4951,-5.5289,-5.5297,-5.5304,-5.5402,0,0,0,0,0,0,-5.4623,-5.4649,-5.4702,-5.4738,-5.4761,-5.4912,-5.4822,-5.4821,-5.4859,-5.485,-5.489,-5.4892,-5.4883,-5.4996,-5.5015,-5.5085,-5.4957,-5.5283,-5.5293,-5.5302,-5.5393,-5.5412,-5.5428,0,0,0,0,0,-5.4615,-5.4726,-5.4705,-5.4726,-5.4827,-5.4916,-5.4929,-5.4917,-5.4865,-5.4918,-5.493,-5.4891,-5.5067,-5.5008,-5.5028,-5.5101,-5.5279,-5.529,-5.5301,-5.5385,-5.5408,-5.5428,0,0,0,0,0,0,-5.4695,-5.473,-5.4707,-5.4833,-5.4872,-5.4904,-5.4969,-5.4942,-5.4996,-5.4985,-5.4968,-5.4977,-5.5089,-5.5107,-5.504,-5.5237,-5.5164,-5.518,-5.5221,-5.5243,-5.5261,-5.5253,-5.4963,0,0,0,0,0,-5.4728,-5.4798,-5.4824,-5.4932,-5.4953,-5.4959,-5.4997,-5.4984,-5.5024,-5.504,-5.5059,-5.5098,-5.5162,-5.5204,-5.5264,-5.5396,-5.5403,-5.5457,-5.5475,-5.5489,-5.5502,-5.5572,-5.5595,-5.5343,-5.5343,-5.5343,0,0,-5.4795,-5.4823,-5.4868,-5.4949,-5.4978,-5.5049,-5.4973,-5.5052,-5.5104,-5.5051,-5.5153,-5.5169,-5.5212,-5.5331,-5.5385,-5.5349,-5.5574,-5.5503,-5.5515,-5.552,-5.5585,-5.5609,-5.563,-5.5351,-5.5349,-5.5348,0,0,-5.4954,-5.4983,-5.5075,-5.5107,-5.5152,-5.5155,-5.5178,-5.5214,-5.5223,-5.5325,-5.5287,-5.5349,-5.546,-5.5492,-5.5522,-5.5695,-5.5661,-5.5716,-5.5807,-5.5876,-5.5895,-5.5913,-5.5972,-5.5994,-5.5729,-5.5729,-5.5729,0,-5.5031,-5.5138,-5.5126,-5.5208,-5.5245,-5.5202,-5.5295,-5.5326,-5.5388,-5.5414,-5.5374,-5.5512,-5.5538,-5.5663,-5.5706,-5.5733,-5.5757,-5.5709,-5.5894,-5.5911,-5.5927,-5.5983,-5.6006,-5.5735,-5.5735,-5.5734,-5.5733,0,-5.523,-5.5305,-5.5374,-5.5436,-5.5481,-5.5568,-5.5569,-5.5616,-5.5601,-5.5608,-5.5712,-5.5743,-5.5807,-5.5837,-5.5823,-5.5961,-5.5937,-5.5896,-5.5822,-5.5958,-5.601,-5.6032,-5.5744,-5.5742,-5.574,-5.5738,0,0,-5.5437,-5.5494,-5.5519,-5.5547,-5.5595,-5.5652,-5.5738,-5.5802,-5.5841,-5.5887,-5.5957,-5.6053,-5.6015,-5.605,-5.604,-5.61,-5.6233,-5.6051,-5.6052,-5.6081,-5.6385,-5.6413,-5.6438,-5.6212,-5.6216,-5.622,-5.638,0,-5.5596,-5.5745,-5.5738,-5.5877,-5.5945,-5.5907,-5.5982,-5.6019,-5.6029,-5.6088,-5.6099,-5.6166,-5.6113,-5.6133,-5.6192,-5.6204,-5.6293,-5.6193,-5.6275,-5.6278,-5.6262,-5.6466,-5.6496,-5.6646,-5.6401,-5.6404,-5.6407,0,-5.58,-5.5853,-5.5999,-5.6037,-5.6065,-5.6133,-5.6191,-5.6249,-5.629,-5.6293,-5.6334,-5.6313,-5.6399,-5.6326,-5.6443,-5.6376,-5.6409,-5.6421,-5.6426,-5.643,-5.6348,-5.6472,-5.6693,-5.6714,-5.644,-5.6437,-5.6435,0,-5.5933,-5.6042,-5.6143,-5.6168,-5.6216,-5.6263,-5.6285,-5.6323,-5.6362,-5.6414,-5.6438,-5.65,-5.6532,-5.6579,-5.6576,-5.6524,-5.6694,-5.6621,-5.6697,-5.6697,-5.6731,-5.6729,-5.6957,-5.676,-5.6759,-5.6759,-5.6758,0,-5.6109,-5.6199,-5.6203,-5.6265,-5.6365,-5.6357,-5.6456,-5.6473,-5.6507,-5.657,-5.6543,-5.6603,-5.6596,-5.6657,-5.6656,-5.6752,-5.6767,-5.6771,-5.6768,-5.6771,-5.677,-5.679,-5.6778,-5.6765,-5.6763,-5.6762,-5.6761,0,-5.6273,-5.628,-5.6387,-5.6424,-5.6436,-5.6507,-5.6539,-5.6597,-5.6606,-5.6687,-5.6706,-5.6719,-5.6789,-5.6792,-5.6872,-5.6871,-5.6987,-5.6975,-5.6973,-5.697,-5.7044,-5.7036,-5.7291,-5.7323,-5.7107,-5.7109,-5.7111,0,-5.6382,-5.6451,-5.6496,-5.6537,-5.6562,-5.6629,-5.6669,-5.6665,-5.6708,-5.6761,-5.6813,-5.6881,-5.6934,-5.7048,-5.7065,-5.7126,-5.7113,-5.7199,-5.7122,-5.7122,-5.7111,-5.7105,-5.7111,-5.7212,-5.7214,-5.7216,-5.7218,0,-5.6575,-5.6576,-5.6635,-5.6697,-5.6746,-5.6794,-5.6838,-5.6874,-5.6874,-5.6924,-5.6996,-5.7038,-5.7121,-5.7188,-5.7248,-5.727,-5.7243,-5.7243,-5.7263,-5.7264,-5.7259,-5.726,-5.701,-5.7236,-5.7234,-5.7233,-5.7232,-5.7231,-5.6713,-5.6772,-5.6813,-5.688,-5.6914,-5.6956,-5.7013,-5.7029,-5.7089,-5.7157,-5.7151,-5.723,-5.7271,-5.7349,-5.7376,-5.7438,-5.7408,-5.7438,-5.7445,-5.7451,-5.7458,-5.7253,-5.7449,-5.7449,-5.7448,-5.7448,-5.7447,0,-5.6902,-5.6927,-5.6989,-5.7053,-5.7106,-5.708,-5.7128,-5.7173,-5.7244,-5.7284,-5.7338,-5.7421,-5.7486,-5.7509,-5.7572,-5.7617,-5.7607,-5.7634,-5.7628,-5.7633,-5.7482,-5.7457,-5.7641,-5.7641,-5.7641,-5.7641,-5.7641,-5.7641,-5.7006,-5.7103,-5.7109,-5.7223,-5.7247,-5.7326,-5.7355,-5.7394,-5.7426,-5.752,-5.7574,-5.759,-5.7623,-5.7689,-5.7747,-5.7752,-5.7775,-5.7807,-5.7807,-5.7664,-5.7644,-5.7625,-5.7601,-5.7813,-5.7813,-5.7952,-5.7953,-5.7954]},{"header":{"parameterUnit":"m.s-1","parameterCategory":1,"la1":30.2991,"la2":30.254,"lo1":-89.0895,"lo2":-89.0444,"dy":0.0017,"dx":0.0017,"nx":28,"ny":28,"refTime":"2025-03-26T21:00:00:Z","depth":0,"parameterNumber":3,"parameterNumberName":"V-component_of_WINDS"},"data":[0,0,0,0,0,0,0,0,0,0,0,0,0,0,0,0,0,0,0,0,0,0,0,0,0,0,0,0,0,0,0,0,0,0,0,0,0,0,0,0,0,0,0,0,0,0,0,0,0,0,0,0,0,0,0,0,0,0,2.6674,2.6675,0,2.6745,2.6746,2.6747,2.6733,2.6732,2.6731,2.673,2.6799,2.6802,2.6805,0,0,0,0,0,0,0,0,0,0,0,0,0,2.6525,2.6528,2.6674,2.6675,2.6676,2.6745,2.6746,2.6747,2.6734,2.6732,2.6731,2.6729,2.6798,2.6801,2.6805,0,0,0,0,0,0,0,0,0,0,0,0,0,2.6592,2.6529,2.6674,2.6678,2.6679,2.6745,2.6746,2.6747,2.6734,2.6732,2.673,2.6729,2.6796,2.6801,2.6805,2.6871,0,0,2.6819,2.6821,0,0,0,0,0,0,0,0,2.6589,2.6598,2.6676,2.6678,2.6679,2.6729,2.6719,2.6788,2.6734,2.6713,2.673,2.6728,2.6777,2.6783,2.68,2.6874,2.6877,2.6819,2.6822,2.6824,2.6825,0,0,0,0,0,0,0,2.6584,2.6595,2.6702,2.6677,2.6679,2.6675,2.6683,2.6732,2.6754,2.6715,2.6714,2.6723,2.6777,2.6796,2.6801,2.6878,2.6819,2.6823,2.6826,2.6828,2.7011,2.7013,0,0,0,0,0,0,2.6578,2.6591,2.67,2.6704,2.6628,2.6679,2.6688,2.6714,2.6754,2.6758,2.6724,2.6722,2.6789,2.6796,2.6804,2.6885,2.6824,2.6828,2.6831,2.7009,2.7012,2.7014,0,0,0,0,0,0,2.6575,2.6588,2.6697,2.6647,2.6661,2.6684,2.6714,2.6717,2.6736,2.6761,2.6765,2.6739,2.6788,2.6797,2.6855,2.6887,2.683,2.6834,2.7007,2.701,2.7013,2.7045,0,0,0,0,0,0,2.6571,2.6587,2.6613,2.6648,2.6664,2.6747,2.6716,2.672,2.6744,2.6741,2.6776,2.678,2.6787,2.6848,2.6859,2.6892,2.6838,2.7004,2.7008,2.7012,2.7042,2.7049,2.7056,0,0,0,0,0,2.6566,2.6617,2.6614,2.6627,2.6696,2.6749,2.6758,2.6766,2.6746,2.6772,2.6789,2.6779,2.6881,2.6854,2.6867,2.6901,2.7002,2.7007,2.7012,2.7038,2.7048,2.7056,0,0,0,0,0,0,2.6583,2.6622,2.6619,2.6683,2.6713,2.6747,2.6779,2.6775,2.681,2.6806,2.6814,2.6822,2.6881,2.6896,2.6865,2.6967,2.6939,2.6946,2.6955,2.6964,2.6971,2.6966,2.6842,0,0,0,0,0,2.6595,2.6636,2.6667,2.6721,2.6737,2.6756,2.6779,2.6783,2.6814,2.6826,2.6847,2.6876,2.6915,2.694,2.6977,2.7044,2.7052,2.7074,2.7081,2.7087,2.7093,2.7131,2.7142,2.703,2.703,2.703,0,0,2.6618,2.6645,2.667,2.6726,2.6749,2.6791,2.6766,2.6811,2.6842,2.6832,2.6889,2.6905,2.6938,2.7001,2.703,2.7016,2.7126,2.7093,2.7098,2.7101,2.7138,2.7148,2.7158,2.7034,2.7033,2.7032,0,0,2.6683,2.6707,2.6756,2.6781,2.6818,2.6831,2.6843,2.6878,2.6889,2.6946,2.694,2.6977,2.7044,2.7068,2.709,2.7167,2.716,2.7179,2.7217,2.7254,2.7263,2.727,2.7299,2.7309,2.7185,2.7186,2.7186,0,2.6708,2.6772,2.6781,2.6828,2.6853,2.6848,2.6898,2.6921,2.6968,2.6985,2.697,2.7055,2.7077,2.7146,2.7166,2.7183,2.7197,2.7175,2.7261,2.7269,2.7276,2.7304,2.7314,2.7188,2.7187,2.7187,2.7187,0,2.6801,2.6846,2.688,2.6928,2.6957,2.7005,2.7021,2.705,2.7052,2.7066,2.7125,2.7152,2.7195,2.7212,2.7213,2.7282,2.7273,2.7259,2.723,2.7289,2.7315,2.7325,2.7191,2.719,2.7189,2.7189,0,0,2.6877,2.6932,2.6944,2.6967,2.7009,2.7043,2.7091,2.7136,2.716,2.7193,2.7234,2.7292,2.728,2.7304,2.7308,2.7341,2.7403,2.7323,2.7324,2.7338,2.7482,2.7493,2.7505,2.7399,2.7401,2.7402,2.748,0,2.6947,2.7033,2.7044,2.7121,2.7163,2.716,2.7202,2.7232,2.7247,2.7285,2.7301,2.7343,2.7323,2.7338,2.7371,2.7389,2.7432,2.7383,2.7436,2.7438,2.7429,2.7518,2.7529,2.7601,2.749,2.7492,2.7493,0,2.7039,2.7078,2.7159,2.7197,2.7215,2.7253,2.7296,2.7332,2.7366,2.7375,2.7404,2.7405,2.7454,2.7424,2.7493,2.746,2.7483,2.7495,2.7498,2.7503,2.7469,2.7527,2.7624,2.7635,2.7509,2.7508,2.7506,0,2.7088,2.716,2.7218,2.7238,2.7283,2.731,2.733,2.7363,2.739,2.7427,2.7445,2.7486,2.7509,2.7542,2.7554,2.7531,2.7623,2.7593,2.7632,2.7631,2.7651,2.7649,2.7754,2.7665,2.7665,2.7664,2.7664,0,2.7165,2.7215,2.7241,2.7277,2.7334,2.7346,2.7401,2.742,2.745,2.7489,2.7489,2.7526,2.754,2.7579,2.7588,2.7645,2.7655,2.7664,2.7666,2.7664,2.7663,2.7679,2.7674,2.7667,2.7667,2.7666,2.7666,0,2.7229,2.7249,2.7312,2.7352,2.7363,2.7403,2.7436,2.7471,2.7487,2.7537,2.7549,2.7574,2.762,2.7636,2.7691,2.7698,2.7764,2.7761,2.7753,2.7753,2.7791,2.7788,2.791,2.7927,2.7826,2.7827,2.7828,0,2.7277,2.7316,2.7361,2.7388,2.741,2.7454,2.7482,2.7496,2.7525,2.7569,2.7599,2.7645,2.7683,2.7758,2.778,2.7823,2.7821,2.7861,2.7828,2.7826,2.7823,2.7821,2.7825,2.7867,2.7868,2.7869,2.787,0,2.7361,2.737,2.7411,2.7457,2.7491,2.7527,2.7561,2.7584,2.7603,2.7636,2.7684,2.7714,2.7773,2.7819,2.7863,2.7883,2.788,2.7881,2.7892,2.7891,2.7885,2.789,2.7771,2.7878,2.7877,2.7876,2.7876,2.7876,2.7419,2.7455,2.7492,2.7539,2.7567,2.7601,2.7636,2.7657,2.7699,2.7748,2.7754,2.7807,2.7842,2.7901,2.7924,2.7965,2.7954,2.797,2.7974,2.7978,2.7981,2.7878,2.7973,2.7973,2.7972,2.7972,2.7972,0,2.7504,2.7529,2.7572,2.7622,2.7659,2.7655,2.7694,2.7725,2.7772,2.7805,2.7844,2.79,2.7946,2.7973,2.8019,2.8047,2.8046,2.8058,2.8056,2.8061,2.7988,2.7974,2.8058,2.8058,2.8058,2.8058,2.8058,2.8058,2.7552,2.7613,2.7626,2.7701,2.7725,2.7778,2.7801,2.7831,2.7859,2.7923,2.7962,2.7979,2.8011,2.8059,2.8101,2.8108,2.8125,2.8138,2.8144,2.8075,2.8066,2.8058,2.8045,2.8142,2.8142,2.8214,2.8214,2.8215]}]]